Fort Myers, FL

5:30 PM EDT on May 25, 2017 (GMT -0400)
Page

Weather History for KFMY - May, 2014

Change the Weather History Date:

Tuesday, May 13, 2014

  Actual Average Record
Temperature  
Mean Temperature 82 °F 79 °F  
Max Temperature 90 °F 89 °F 96 °F (1998)
Min Temperature 73 °F 68 °F 56 °F (1941)
Degree Days  
Heating Degree Days 0 0  
Month to date heating degree days 0 0  
Since 1 July heating degree days 178 287  
Cooling Degree Days 17 14  
Month to date cooling degree days 194 161  
Year to date cooling degree days 921 791  
Growing Degree Days 31 (Base 50)    
Moisture  
Dew Point 71 °F    
Average Humidity 73    
Maximum Humidity 87    
Minimum Humidity 52    
Precipitation  
Precipitation 0.11 in 0.06 in 4.57 in (1972)
Month to date precipitation 0.65 0.77  
Year to date precipitation 8.21 9.92  
Sea Level Pressure  
Sea Level Pressure 30.01 in    
Wind  
Wind Speed 11 mph (East)    
Max Wind Speed 23 mph    
Max Gust Speed 30 mph    
Visibility 9 miles    
Events Rain , Thunderstorm    
T = Trace of Precipitation, MM = Missing Value Source: NWS Daily Summary

Daily Weather History Graph

Daily Weather History Graph

Search for Another Location

Airport or City:

Trip Planner

Search our weather history database for the weather conditions in past years. The results will help you decide how hot, cold, wet, or windy it might be!

Date:

Astronomy

May. 13, 2014 Rise Set
Actual Time 6:41 AM EDT 8:06 PM EDT
Civil Twilight 6:16 AM EDT 8:31 PM EDT
Nautical Twilight 5:46 AM EDT 9:01 PM EDT
Astronomical Twilight 5:15 AM EDT 9:32 PM EDT
Moon 7:12 PM EDT (5/13) 5:48 AM EDT (5/13)
Length of Visible Light 14h 15m
Length of Day
13h 25m
Waxing Gibbous, 98% of the Moon is Illuminated
May 13
Waxing Gibbous
May 14
Full
May 21
Last Quarter
May 28
New
Jun 5
First Quarter

Hourly Weather History & Observations

Time (EDT) Temp. Heat Index Dew Point Humidity Pressure Visibility Wind Dir Wind Speed Gust Speed Precip Events Conditions
12:53 AM 75.9 °F - 69.1 °F 79% 30.05 in 10.0 mi East 6.9 mph - N/A   Clear
2:53 AM 73.9 °F - 69.1 °F 85% 30.01 in 10.0 mi East 6.9 mph - N/A   Clear
3:53 AM 73.9 °F - 69.1 °F 85% 30.01 in 10.0 mi East 10.4 mph - N/A   Clear
4:53 AM 73.9 °F - 68.0 °F 82% 30.00 in 10.0 mi East 9.2 mph - N/A   Clear
5:53 AM 73.0 °F - 68.0 °F 84% 30.02 in 10.0 mi East 5.8 mph - N/A   Clear
6:53 AM 73.0 °F - 69.1 °F 87% 30.03 in 9.0 mi ENE 6.9 mph - N/A   Overcast
7:53 AM 75.0 °F - 69.1 °F 82% 30.04 in 10.0 mi ENE 8.1 mph - N/A   Mostly Cloudy
9:53 AM 82.0 °F 85.9 °F 70.0 °F 67% 30.05 in 10.0 mi East 15.0 mph 23.0 mph N/A   Mostly Cloudy
10:53 AM 84.0 °F 89.0 °F 71.1 °F 65% 30.05 in 10.0 mi East 13.8 mph 23.0 mph N/A   Partly Cloudy
12:53 PM 89.1 °F 93.7 °F 69.1 °F 52% 30.03 in 10.0 mi East 13.8 mph 23.0 mph N/A   Scattered Clouds
1:53 PM 89.1 °F 93.7 °F 69.1 °F 52% 30.02 in 10.0 mi East 13.8 mph - N/A   Mostly Cloudy
2:09 PM 88.0 °F 92.9 °F 70.0 °F 55% 30.00 in 10.0 mi ENE 11.5 mph 20.7 mph N/A   Scattered Clouds
2:24 PM 84.0 °F 89.6 °F 72.0 °F 67% 30.01 in 10.0 mi ENE 10.4 mph - N/A Thunderstorm Thunderstorm
2:39 PM 82.9 °F 88.8 °F 73.0 °F 72% 30.00 in 9.0 mi ENE 9.2 mph - 0.00 in Rain , Thunderstorm Light Rain
2:53 PM 84.0 °F 90.2 °F 73.0 °F 69% 30.01 in 10.0 mi East 13.8 mph - 0.00 in   Scattered Clouds
3:00 PM 79.0 °F - 73.0 °F 82% 30.01 in 1.8 mi East 10.4 mph 31.1 mph 0.04 in Rain Heavy Rain
3:09 PM 79.0 °F - 73.9 °F 84% 30.01 in 3.0 mi ESE 5.8 mph - 0.11 in Rain Light Rain
3:10 PM 79.0 °F - 73.9 °F 84% 30.00 in 7.0 mi ESE 5.8 mph - 0.11 in Rain Light Rain
3:53 PM 81.0 °F 86.2 °F 73.9 °F 79% 29.99 in 10.0 mi NE 12.7 mph - 0.11 in   Partly Cloudy
4:53 PM 84.0 °F 89.0 °F 71.1 °F 65% 29.96 in 10.0 mi East 15.0 mph 26.5 mph N/A   Clear
5:53 PM 84.0 °F 89.0 °F 71.1 °F 65% 29.97 in 10.0 mi East 10.4 mph 19.6 mph N/A   Clear
6:53 PM 84.9 °F 88.2 °F 68.0 °F 57% 29.96 in 10.0 mi East 13.8 mph - N/A   Clear
7:53 PM 82.9 °F 87.0 °F 70.0 °F 65% 29.97 in 10.0 mi East 13.8 mph - N/A   Partly Cloudy
8:53 PM 80.1 °F 83.8 °F 72.0 °F 76% 30.00 in 10.0 mi East 10.4 mph 19.6 mph N/A   Clear
9:53 PM 79.0 °F - 71.1 °F 77% 30.02 in 10.0 mi East 8.1 mph - N/A   Clear
10:53 PM 78.1 °F - 71.1 °F 79% 30.03 in 10.0 mi East 9.2 mph - N/A   Clear
11:53 PM 77.0 °F - 71.1 °F 82% 30.04 in 10.0 mi East 10.4 mph - N/A   Clear